Location: ??????
(55.2000°N, 38.3000°E)
Time: 00:37:10
(UTC+00:00)

PAYLOAD A - Pass Details

Date: 15 November 2025
Orbit: 690 x 828 km, 98.6° (Epoch: 12 December)

Event Time Altitude Azimuth Distance (km) Brightness Sun altitude
Rises 02:53:24 0° 13° (NNE) 3,381 7.4 -17.7°
Reaches altitude 10° 02:55:53 10° 7° (N) 2,436 6.6 -17.3°
Maximum altitude 03:00:55 42° 298° (WNW) 1,155 4.5 -16.6°
Enters shadow 03:05:40 11° 230° (SW) 2,312 6.1 -15.9°
